Wind_Speed
17 17 17 17 16 15 12 12 12 11 11 10 9 8 6 6 5 4 3 4 4 4 5 5 5 5 5 6 6 7 7 7 7 8 8 9 10 10 10 10 10 11 11
16 16 16 16 15 14 13 12 11 11 10 10 10 9 8 7 6 6 5 5 5 6 6 6 6 5 6 7 7 7 7 8 9 9 10 10 11 12 12 12 13 13 13
15 15 15 15 14 13 13 13 12 11 11 11 11 10 9 8 8 7 7 6 6 7 7 7 6 7 7 8 8 9 9 10 10 11 11 12 13 13 13 13 14 14 14
14 14 14 14 13 13 13 13 12 11 11 11 11 11 10 9 8 9 8 8 8 8 8 8 8 8 9 9 10 10 11 11 11 12 12 13 14 14 14 14 15 15 16
14 13 13 13 13 13 13 13 12 12 11 11 12 11 10 10 10 10 9 8 9 9 9 9 9 10 10 10 11 12 12 13 13 13 14 15 16 16 16 16 16 17 18
12 13 12 12 13 13 13 13 13 13 12 12 13 12 12 11 11 11 11 10 10 10 10 10 11 11 11 11 12 13 13 14 14 15 15 15 16 17 17 18 18 18 19
11 11 12 12 12 13 13 13 13 13 13 13 14 13 13 12 12 12 12 11 12 11 11 11 11 11 12 12 13 14 14 14 15 15 15 16 17 18 18 18 19 19 20
10 11 11 11 12 12 13 13 14 13 14 14 15 14 13 13 12 13 13 13 13 13 12 12 12 12 13 13 14 14 14 15 16 16 17 17 18 18 19 19 20 21 21
9 10 11 12 12 12 12 12 13 13 14 14 15 15 14 14 13 13 13 13 13 13 13 14 14 14 14 14 14 14 14 15 16 17 17 18 19 19 18 19 19 20 20
9 10 11 12 12 13 13 13 13 13 14 15 15 15 15 15 15 15 15 14 14 14 15 14 14 14 13 13 13 14 14 15 16 17 18 19 19 19 19 19 19 19 20
10 10 11 12 12 13 13 13 13 13 14 15 15 16 16 16 16 16 16 16 16 16 16 15 15 15 15 15 15 15 15 16 17 17 18 19 19 19 19 19 19 20 20
12 12 12 13 13 13 13 13 12 13 14 15 15 16 16 17 17 17 17 17 17 17 17 17 16 16 16 16 17 17 17 17 17 18 18 19 19 20 20 19 20 20 21
14 14 14 14 14 14 14 14 14 14 15 16 16 16 17 17 18 18 18 18 18 18 18 17 17 17 17 18 18 19 18 18 19 19 19 19 20 20 20 21 21 21 21
15 15 15 15 15 15 15 16 17 16 17 17 17 18 18 19 19 20 20 20 19 19 19 19 18 19 19 19 20 20 20 19 19 20 21 21 21 21 22 22 22 22 22
17 17 16 16 17 17 16 17 18 18 18 18 18 19 19 20 21 21 22 21 20 20 20 20 20 20 20 20 21 21 20 20 20 21 21 22 22 22 22 23 22 22 22
19 19 18 18 18 18 18 19 20 20 20 19 19 20 20 21 22 22 22 22 22 21 22 21 21 21 22 22 21 21 20 21 21 22 22 23 23 23 22 22 23 23 23
21 20 20 20 20 20 20 21 21 21 21 21 21 20 20 21 22 22 22 23 23 23 23 23 23 23 23 23 23 23 22 22 23 23 23 23 23 22 22 22 23 23 22
23 22 22 22 21 22 22 23 22 22 22 22 23 23 22 22 22 23 23 24 24 24 24 24 24 23 23 24 24 23 23 23 23 24 23 23 24 24 23 23 22 22 23
25 24 24 24 23 23 23 24 23 22 23 23 23 23 23 23 23 24 24 24 25 25 25 25 24 24 23 24 24 23 23 23 23 23 23 23 24 24 24 23 23 24 24
25 25 25 26 25 25 25 25 24 24 24 25 24 25 25 25 25 25 25 26 26 26 25 25 25 24 24 23 24 24 24 23 24 24 24 24 25 25 25 24 25 25 25
26 26 27 27 27 27 27 26 26 25 25 26 26 26 26 26 26 27 26 27 26 26 25 25 25 24 24 23 23 24 24 24 25 25 25 24 25 25 25 25 25 26 26
28 28 28 28 28 29 28 28 27 26 27 27 27 27 27 27 28 28 27 27 26 26 25 25 25 25 25 24 24 25 25 26 26 25 25 25 25 25 26 26 26 27 27
30 29 29 29 29 29 29 29 28 29 29 29 29 29 28 29 29 28 27 27 27 27 26 26 26 25 25 25 26 26 26 27 26 26 26 26 26 26 27 27 27 27 27
31 31 31 31 30 30 30 31 31 30 30 30 30 30 30 30 29 29 28 27 27 27 26 27 26 26 25 26 27 27 27 27 27 26 26 26 26 27 27 27 28 28 28
32 33 33 33 32 32 31 31 31 31 31 32 31 31 31 30 30 29 29 29 28 28 28 28 27 27 26 26 26 26 26 27 27 27 27 27 27 28 28 28 28 28 28
32 33 34 34 33 33 32 32 32 32 31 31 31 31 30 30 30 30 30 30 29 29 28 28 28 28 28 27 27 27 27 27 27 27 27 28 27 28 28 29 29 29 30
Wind_Direction
21 22 22 22 24 25 28 27 27 27 28 27 24 22 20 15 6 353 333 326 327 321 319 309 280 272 270 264 265 265 265 267 269 269 268 268 268 268 269 271 265 262 263
16 18 18 19 21 23 22 19 21 23 23 24 23 21 16 10 4 353 332 318 316 316 309 305 293 282 279 277 275 270 267 268 270 271 271 273 275 274 274 273 269 265 262
12 14 15 15 16 19 18 19 21 21 21 21 20 16 13 9 3 353 342 330 321 313 307 298 295 291 288 285 283 283 278 275 273 272 272 273 275 276 276 272 267 266 263
8 11 12 12 14 16 16 19 21 20 20 20 16 12 8 4 355 349 342 331 325 320 310 300 293 290 289 287 285 284 283 282 280 280 278 277 278 279 275 273 271 271 270
1 9 11 12 14 16 18 18 18 17 17 15 12 7 1 356 351 352 346 334 325 319 315 309 302 295 290 286 286 286 286 285 283 283 282 282 280 279 277 275 275 273 271
354 3 8 11 12 15 17 16 15 13 12 10 7 2 356 353 350 347 344 337 328 320 315 310 305 299 293 289 287 287 287 288 286 285 285 285 284 280 277 277 277 276 275
348 356 1 4 4 6 9 10 9 8 7 6 2 359 355 351 349 345 341 338 334 326 318 312 306 301 300 298 293 289 289 289 288 288 287 288 286 283 279 280 278 278 278
341 349 351 354 356 358 -0 2 2 3 2 1 0 359 356 352 349 343 339 337 333 328 321 317 311 304 301 301 297 294 293 293 292 290 289 290 288 284 281 280 279 279 279
331 339 341 345 349 350 351 353 357 358 357 356 356 357 356 353 350 346 342 340 337 333 329 322 317 311 306 303 299 298 296 294 293 292 292 293 294 288 285 284 282 281 279
320 329 336 341 344 345 345 351 353 353 351 350 349 349 349 347 346 344 342 339 338 335 331 326 320 316 313 311 306 301 300 298 296 295 296 297 295 293 289 286 283 281 281
311 319 326 331 335 337 339 342 344 345 346 346 344 343 343 343 341 340 338 337 335 334 332 330 325 318 312 310 308 305 302 300 299 297 297 298 297 297 293 289 287 285 283
304 310 314 319 324 326 329 332 333 335 337 339 339 339 338 339 339 338 335 333 332 331 330 330 326 322 317 312 310 306 303 302 302 301 300 299 298 295 295 293 291 289 288
299 304 308 310 311 315 319 322 325 328 331 331 331 332 333 333 333 331 331 330 328 326 325 325 325 323 320 315 313 309 303 301 301 301 301 300 300 298 296 297 295 293 290
293 298 301 303 306 309 311 315 317 321 324 324 324 326 328 329 328 327 326 326 326 324 321 320 320 321 320 317 314 311 307 302 301 302 301 301 300 299 296 295 296 295 292
287 290 293 296 299 303 308 312 314 315 317 319 322 322 323 323 324 324 323 321 321 320 318 316 316 317 318 317 315 311 307 304 303 303 304 303 302 301 299 297 294 293 292
284 286 287 290 293 296 300 305 307 308 311 313 315 315 318 320 321 321 321 321 320 319 317 315 314 314 315 315 315 311 308 305 305 306 306 306 304 302 303 300 296 294 294
281 284 285 286 288 292 296 299 301 305 307 308 313 312 314 317 321 322 322 322 320 319 318 315 313 312 313 314 313 309 308 306 304 304 305 305 307 306 305 302 300 298 297
279 281 282 282 284 287 292 295 298 301 304 308 311 311 310 312 315 317 319 319 319 319 319 318 314 313 313 313 313 312 310 307 305 304 304 304 306 306 305 305 304 305 304
274 277 279 280 282 285 287 291 295 297 300 303 305 308 310 311 313 314 314 316 317 317 317 317 316 314 312 312 313 312 311 309 307 307 306 304 305 306 307 306 305 305 303
271 273 276 279 280 282 285 287 291 294 297 300 302 304 306 309 310 312 312 313 314 314 315 316 315 314 312 312 313 313 311 308 307 306 305 305 305 305 305 304 304 303 303
270 272 275 278 281 283 286 287 289 291 294 297 299 301 303 306 308 310 311 312 312 313 314 314 313 313 312 312 312 312 311 309 307 307 306 305 306 305 304 304 304 304 303
270 271 273 276 280 283 284 286 289 290 291 293 295 297 299 302 304 305 306 308 310 311 312 312 311 311 313 312 311 311 309 308 307 306 305 305 305 304 303 303 304 305 304
269 270 271 273 278 282 283 284 286 288 289 290 292 294 295 298 301 303 303 305 307 310 311 311 312 310 312 312 311 310 309 308 307 305 305 306 306 305 305 304 304 304 304
267 269 271 273 276 279 282 284 285 286 287 288 290 291 292 294 297 299 300 302 304 307 310 312 311 310 309 310 310 310 311 310 307 306 306 308 307 307 306 305 304 304 304
266 268 270 273 274 277 280 283 284 285 287 288 288 288 290 291 294 296 297 298 300 302 305 309 310 310 310 310 309 310 310 310 309 308 308 309 309 309 308 306 305 304 304
267 268 270 272 273 275 277 279 281 283 286 287 288 288 289 292 293 294 294 295 297 299 302 304 306 307 308 309 308 308 309 309 310 309 309 309 309 309 308 308 306 305 306
Height
5908 5905 5903 5901 5899 5897 5896 5894 5893 5891 5890 5889 5888 5888 5887 5886 5886 5885 5885 5885 5885 5884 5884 5884 5884 5884 5885 5885 5885 5885 5885 5885 5885 5886 5886 5886 5886 5886 5886 5886 5886 5886 5886
5909 5907 5905 5903 5901 5899 5898 5896 5894 5893 5892 5891 5890 5889 5888 5887 5886 5886 5885 5885 5884 5884 5883 5883 5883 5883 5883 5883 5884 5884 5884 5884 5884 5884 5884 5884 5885 5884 5884 5884 5884 5883 5883
5911 5909 5907 5905 5903 5901 5899 5898 5896 5894 5893 5892 5891 5890 5889 5888 5887 5886 5885 5884 5883 5883 5882 5882 5882 5882 5882 5882 5882 5882 5882 5882 5882 5882 5882 5882 5882 5881 5881 5881 5880 5879 5879
5912 5910 5908 5906 5904 5902 5901 5899 5897 5896 5894 5893 5891 5890 5889 5888 5887 5886 5884 5884 5883 5882 5881 5881 5881 5880 5880 5880 5880 5880 5880 5879 5879 5879 5879 5879 5878 5878 5878 5877 5877 5876 5876
5913 5911 5909 5907 5906 5904 5902 5900 5899 5897 5895 5894 5892 5891 5889 5888 5886 5885 5884 5883 5882 5881 5880 5879 5879 5878 5878 5878 5878 5877 5877 5876 5876 5875 5875 5875 5874 5874 5874 5874 5873 5873 5873
5914 5912 5910 5908 5907 5905 5903 5901 5900 5898 5896 5894 5893 5891 5889 5888 5886 5885 5883 5882 5881 5880 5879 5878 5877 5876 5876 5875 5875 5874 5874 5873 5873 5872 5871 5871 5870 5870 5870 5869 5869 5869 5869
5914 5913 5911 5909 5908 5906 5904 5902 5901 5899 5897 5895 5893 5891 5889 5887 5886 5884 5882 5881 5880 5879 5877 5876 5875 5874 5873 5873 5872 5871 5870 5870 5869 5868 5868 5867 5866 5865 5865 5865 5864 5864 5864
5914 5913 5911 5910 5908 5906 5905 5903 5901 5899 5897 5895 5893 5891 5889 5887 5885 5884 5882 5880 5879 5877 5876 5874 5873 5872 5871 5870 5869 5868 5867 5866 5866 5865 5864 5863 5862 5861 5860 5860 5860 5859 5859
5914 5913 5911 5909 5908 5906 5905 5903 5901 5899 5897 5895 5893 5891 5889 5887 5885 5883 5881 5879 5877 5876 5874 5872 5871 5870 5868 5867 5866 5865 5864 5863 5862 5861 5860 5858 5857 5856 5855 5855 5854 5854 5853
5913 5911 5910 5908 5907 5906 5904 5902 5901 5899 5897 5895 5893 5891 5888 5886 5884 5882 5880 5878 5876 5874 5872 5870 5869 5867 5866 5865 5863 5862 5861 5860 5858 5857 5856 5854 5853 5852 5851 5850 5849 5848 5848
5911 5910 5909 5908 5906 5905 5903 5901 5900 5898 5896 5894 5892 5890 5887 5885 5883 5881 5879 5877 5874 5872 5870 5868 5866 5864 5863 5862 5860 5859 5858 5856 5855 5853 5852 5850 5849 5847 5846 5845 5844 5843 5842
5909 5908 5907 5906 5905 5904 5902 5900 5898 5896 5895 5893 5891 5889 5886 5884 5882 5879 5877 5875 5873 5870 5868 5865 5863 5861 5860 5858 5857 5855 5854 5852 5851 5849 5847 5846 5844 5842 5841 5839 5838 5837 5836
5906 5906 5905 5904 5903 5901 5900 5898 5896 5894 5893 5891 5889 5887 5885 5882 5880 5877 5875 5873 5870 5868 5865 5863 5861 5859 5857 5855 5853 5851 5849 5848 5846 5845 5843 5842 5840 5838 5836 5835 5833 5832 5831
5904 5903 5903 5902 5900 5898 5897 5896 5894 5893 5891 5889 5887 5885 5882 5880 5877 5875 5873 5870 5868 5865 5863 5860 5858 5856 5853 5851 5849 5847 5845 5843 5842 5840 5839 5837 5835 5833 5831 5830 5828 5826 5825
5901 5900 5900 5899 5897 5896 5895 5893 5892 5890 5889 5886 5884 5882 5880 5877 5875 5872 5870 5867 5864 5862 5860 5857 5855 5852 5850 5847 5845 5843 5841 5839 5837 5836 5834 5832 5830 5828 5826 5824 5822 5821 5819
5897 5897 5896 5895 5894 5893 5892 5890 5889 5887 5885 5883 5881 5879 5876 5874 5872 5869 5866 5864 5861 5858 5856 5854 5851 5848 5846 5843 5841 5838 5836 5834 5833 5831 5829 5827 5824 5822 5820 5818 5817 5815 5813
5893 5892 5892 5891 5890 5889 5888 5887 5885 5884 5882 5879 5877 5874 5872 5870 5868 5865 5863 5860 5857 5854 5852 5849 5846 5844 5841 5839 5836 5834 5832 5830 5827 5826 5824 5822 5819 5817 5815 5813 5811 5809 5807
5888 5888 5887 5886 5886 5885 5884 5883 5881 5880 5878 5876 5874 5871 5869 5867 5864 5861 5859 5856 5853 5850 5848 5845 5842 5839 5836 5834 5831 5829 5827 5824 5822 5820 5818 5816 5814 5812 5810 5808 5805 5803 5801
5883 5883 5882 5882 5881 5880 5879 5878 5877 5875 5874 5872 5870 5867 5865 5862 5860 5857 5855 5852 5849 5846 5843 5840 5836 5834 5831 5829 5826 5824 5821 5819 5817 5815 5812 5810 5808 5807 5804 5802 5800 5798 5796
5876 5877 5877 5876 5876 5875 5874 5873 5872 5870 5869 5867 5865 5863 5860 5857 5855 5852 5850 5847 5844 5840 5837 5834 5831 5828 5826 5823 5821 5818 5816 5814 5812 5809 5807 5805 5803 5801 5798 5796 5794 5792 5789
5869 5870 5871 5870 5870 5869 5868 5866 5866 5865 5863 5861 5859 5857 5855 5852 5850 5847 5844 5841 5838 5835 5832 5829 5826 5823 5820 5818 5816 5813 5811 5808 5806 5804 5802 5799 5797 5795 5792 5790 5788 5785 5783
5862 5863 5864 5864 5863 5862 5861 5860 5859 5858 5857 5855 5853 5851 5849 5847 5844 5842 5839 5836 5833 5830 5827 5824 5821 5818 5815 5813 5811 5808 5806 5803 5801 5798 5796 5793 5791 5788 5786 5783 5781 5778 5776
5855 5856 5856 5856 5856 5855 5854 5853 5852 5851 5849 5848 5846 5844 5842 5840 5838 5835 5832 5830 5828 5825 5822 5819 5816 5813 5810 5808 5805 5803 5800 5797 5795 5792 5789 5787 5784 5782 5779 5776 5774 5771 5769
5848 5848 5848 5848 5848 5848 5847 5846 5845 5843 5842 5841 5839 5837 5835 5833 5831 5829 5827 5824 5822 5819 5816 5813 5810 5807 5805 5802 5799 5796 5794 5791 5788 5786 5783 5780 5777 5775 5772 5769 5767 5764 5761
5840 5840 5840 5840 5840 5839 5839 5838 5837 5835 5834 5833 5831 5829 5828 5826 5824 5822 5820 5818 5815 5813 5810 5807 5805 5802 5799 5796 5793 5790 5788 5785 5782 5779 5776 5774 5771 5768 5765 5762 5759 5757 5754
5831 5832 5832 5832 5831 5831 5830 5829 5828 5827 5826 5824 5823 5822 5820 5819 5817 5815 5812 5810 5808 5806 5803 5801 5798 5795 5793 5790 5787 5784 5781 5779 5776 5773 5770 5767 5764 5761 5758 5755 5752 5749 5746